Preview of NWS' New Version of Forecast
This preview is not operational and should not be used for support decisions.

Regional Weather Roundup (RWR)

Issued by National Weather Service (NWS)

                            
000
ASUS46 KSEW 211810
RWRWA 

WASHINGTON REGIONAL WEATHER ROUNDUP
NATIONAL WEATHER SERVICE SEATTLE WA
1100 AM PDT WED AUG 21 2019

NOTE:"FAIR" INDICATES FEW OR NO CLOUDS BELOW 12,000 FEET WITH NO 
SIGNIFICANT WEATHER AND/OR OBSTRUCTIONS TO VISIBILITY.

WAZ507-509-555>559-211900-
SEATTLE, TACOMA, EVERETT, AND VICINITY
  
CITY           SKY/WX    TMP DP  RH WIND       PRES   REMARKS
EVERETT        CLOUDY    62  59  90 SE8       29.99F                  
6HR MIN TEMP:  60; 6HR MAX TEMP:  63; 6HR PCP:  0.13;                

BOEING FIELD   LGT RAIN  66  60  81 S5        29.98F                  
6HR MIN TEMP:  61; 6HR MAX TEMP:  66; 6HR PCP:  0.05;                

RENTON         CLOUDY    66  61  84 CALM      29.98F                  
6HR MIN TEMP:  60; 6HR MAX TEMP:  66; 6HR PCP:  0.08;                

SEATAC AIRPORT CLOUDY    64  59  83 SW3       29.99F                  
6HR MIN TEMP:  60; 6HR MAX TEMP:  64; 6HR PCP:  0.11;                

JBLM-MCCHORD   PTSUNNY   64  59  82 CALM      30.00S                  
PUYALLUP       CLOUDY    66  63  88 CALM      30.00R                  
BREMERTON      LGT RAIN  61  59  93 SW12      30.00S                  
6HR MIN TEMP:  58; 6HR MAX TEMP:  61; 6HR PCP:  0.23;                

JBLM-FT LEWIS  NOT AVBL                                               
TACOMA NARROWS CLOUDY    60  59  96 W6        30.00S                  
6HR MIN TEMP:  57; 6HR MAX TEMP:  61; 6HR PCP:  0.14;                

$$
 
WAZ001-503-506-510-514-515-211900-
NORTH INTERIOR
  
CITY           SKY/WX    TMP DP  RH WIND       PRES   REMARKS
BELLINGHAM     CLOUDY    64  59  83 S8        29.96R                  
6HR MIN TEMP:  62; 6HR MAX TEMP:  67; 6HR PCP:  0.14;                

FRIDAY HARBOR  CLOUDY    60  58  92 SE5       29.97S                  
6HR MIN TEMP:  57; 6HR MAX TEMP:  61; 6HR PCP:  0.01;                

EASTSOUND      LGT RAIN  63  61  94 SE10      29.95S                  
PORT ANGELES   CLOUDY    58  57  97 N6        29.96R                  
6HR MIN TEMP:  55; 6HR MAX TEMP:  60; 6HR PCP:  0.11;                

EDIZ HOOK      CLOUDY    56  55  95 NW6       29.96R                  
6HR MIN TEMP:  53; 6HR MAX TEMP:  57; 6HR PCP:  0.04;                

PORT TOWNSEND  CLOUDY    63  61  94 S7        29.95R                  
NAS WHIDBEY    LGT RAIN  65  59  81 SE10G22   29.99S                  
6HR MIN TEMP:  63; 6HR MAX TEMP:  68; 6HR PCP:  0.11;                

ARLINGTON      LGT RAIN  63  59  87 SE8       29.99S                  
6HR MIN TEMP:  61; 6HR MAX TEMP:  67;                                

BURLINGTON     CLOUDY    63  61  94 SE7       29.98S FOG              
$$
 
WAZ020-022-039-040-504-511-512-211900-
SOUTHWEST INTERIOR
  
CITY           SKY/WX    TMP DP  RH WIND       PRES   REMARKS
SHELTON        CLOUDY    63  59  87 SE7       29.97S                  
6HR MIN TEMP:  59; 6HR MAX TEMP:  63; 6HR PCP:  0.39;                

OLYMPIA        CLOUDY    63  60  90 SW7       29.99F FOG              
6HR MIN TEMP:  57; 6HR MAX TEMP:  62; 6HR PCP:  0.09;                

CHEHALIS       DRIZZLE   64  61  88 S6        29.99S                  
KELSO          CLOUDY    66  58  75 S7        30.00F                  
6HR MIN TEMP:  59; 6HR MAX TEMP:  66; 6HR PCP: TRACE;                

VANCOUVER      CLOUDY    70  54  56 S6        30.01F                  
6HR MIN TEMP:  62; 6HR MAX TEMP:  70;                                

SCAPPOOSE, OR  CLOUDY    68  55  63 SE10      30.00F                  
6HR MIN TEMP:  53; 6HR MAX TEMP:  69;                                

PORTLAND, OR   CLOUDY    70  54  56 S7        30.01F                  
6HR MIN TEMP:  61; 6HR MAX TEMP:  70;                                

$$
 
WAZ021-516-517-211900-
WASHINGTON COAST
  
CITY           SKY/WX    TMP DP  RH WIND       PRES   REMARKS
FORKS          CLOUDY    61  60  97 S9        29.97R                  
6HR MIN TEMP:  60; 6HR MAX TEMP:  61; 6HR PCP:  0.20;                

HOQUIAM        LGT RAIN  62  62 100 E8        29.98S FOG              
6HR MIN TEMP:  59; 6HR MAX TEMP:  62;                                

ASTORIA, OR    RAIN      62  60  93 NE7       29.97S VSB 1            
6HR MIN TEMP:  59; 6HR MAX TEMP:  62; 6HR PCP:  0.41;                

$$
 
WAZ019-023-024-040-567>569-211900-
CASCADE MOUNTAINS AND COLUMBIA GORGE
  
CITY           SKY/WX    TMP DP  RH WIND       PRES   REMARKS
STAMPEDE PASS  NOT AVBL                                               
TROUTDALE, OR  CLOUDY    71  54  54 E6        30.01F                  
6HR MIN TEMP:  55; 6HR MAX TEMP:  71;                                

HOOD RIVER, OR MOCLDY    70  52  52 SW3       29.99S                  
THE DALLES, OR PTSUNNY   75  50  41 W13       29.95S                  
6HR MIN TEMP:  64; 6HR MAX TEMP:  78;                                

$$

WAZ026-027-041>044-520-521-211900-
EAST SLOPES
  
CITY           SKY/WX    TMP DP  RH WIND       PRES   REMARKS
OMAK           SUNNY     82  47  29 SE9       29.85F                  
6HR MIN TEMP:  58; 6HR MAX TEMP:  82;                                

WENATCHEE      NOT AVBL                                               
ELLENSBURG     MOSUNNY   77  46  33 NW21G30   29.93S                  
6HR MIN TEMP:  64; 6HR MAX TEMP:  77;                                

YAKIMA         MOSUNNY   80  41  24 CALM      29.91F                  
6HR MIN TEMP:  51; 6HR MAX TEMP:  80;                                

SUNNYSIDE ARPT CLEAR     79  46  31 CALM      29.91                   
6HR MIN TEMP:  55; 6HR MAX TEMP:  79;                                

YAKIMA TC      MOCLDY    80  37  20 N3        29.90F                  
6HR MIN TEMP:  59; 6HR MAX TEMP:  81;                                

$$

WAZ028-034-035-211900-
COLUMBIA BASIN
  
CITY           SKY/WX    TMP DP  RH WIND       PRES   REMARKS
EPHRATA        SUNNY     85  39  19 S7        29.87F                  
6HR MIN TEMP:  61; 6HR MAX TEMP:  85;                                

MOSES LAKE     SUNNY     83  51  33 S12       29.89F                  
6HR MIN TEMP:  61; 6HR MAX TEMP:  84;                                

PASCO          SUNNY     84  43  23 SW13      29.90F                  
6HR MIN TEMP:  71; 6HR MAX TEMP:  85;                                

RICHLAND ARPT  CLEAR     85  47  26 SW10      29.88F                  
6HR MIN TEMP:  71; 6HR MAX TEMP:  85;                                

HERMISTON, OR  SUNNY     84  48  28 W14       29.92F                  
6HR MIN TEMP:  69; 6HR MAX TEMP:  84;                                

$$

WAZ036>038-211900-
NORTHEAST WASHINGTON
  
CITY           SKY/WX    TMP DP  RH WIND       PRES   REMARKS
SPOKANE GEIGER MOSUNNY   79  46  31 SW10      29.96S                  
6HR MIN TEMP:  64; 6HR MAX TEMP:  79;                                

SPOKANE FELTS  SUNNY     81  49  32 MISG      29.94F                  
6HR MIN TEMP:  58; 6HR MAX TEMP:  81;                                

FAIRCHILD AFB  SUNNY     79  46  30 S12       29.95F                  
6HR MIN TEMP:  61; 6HR MAX TEMP:  79;                                

COEURDALENE,ID SUNNY     77  50  38 SW6       29.97F                  
6HR MIN TEMP:  56; 6HR MAX TEMP:  77;                                

DEER PARK      SUNNY     75  51  43 SE5       29.95F                  
6HR MIN TEMP:  50; 6HR MAX TEMP:  75;                                

$$

WAZ029>033-211900-
SOUTHEAST WASHINGTON
  
CITY           SKY/WX    TMP DP  RH WIND       PRES   REMARKS
PULLMAN        MOSUNNY   78  43  28 W6        30.00F                  
6HR MIN TEMP:  58; 6HR MAX TEMP:  79;                                

LEWISTON, ID   PTSUNNY   85  49  28 CALM      29.92F                  
6HR MIN TEMP:  70; 6HR MAX TEMP:  86;                                

WALLA WALLA    SUNNY     83  43  24 S12       29.94F                  
6HR MIN TEMP:  70; 6HR MAX TEMP:  83;                                

PENDLETON, OR  SUNNY     82  44  26 SW7G16    29.95F                  
6HR MIN TEMP:  61; 6HR MAX TEMP:  83;                                

$$